[[{"header":{"parameterUnit":"m.s-1","parameterCategory":1,"la1":30.2991,"la2":30.254,"lo1":-89.0895,"lo2":-89.0444,"dy":0.0017,"dx":0.0017,"nx":28,"ny":28,"refTime":"2024-07-17T09:00:00:Z","depth":0,"parameterNumber":2,"parameterNumberName":"U-component_of_WINDS"},"data":[0,0,0,0,0,0,0,0,0,0,0,0,0,0,0,0,0,0,0,0,0,0,0,0,0,0,0,0,0,0,0,0,0,0,0,0,0,0,0,0,0,0,0,0,0,0,0,0,0,0,0,0,0,0,0,0,0,0,1.3953,1.3952,0,1.3928,1.3928,1.3928,1.3862,1.386,1.3859,1.3858,1.3833,1.3834,1.3835,0,0,0,0,0,0,0,0,0,0,0,0,0,1.3942,1.3943,1.3953,1.3952,1.3952,1.3928,1.3928,1.3928,1.3862,1.386,1.3859,1.3857,1.3833,1.3834,1.3835,0,0,0,0,0,0,0,0,0,0,0,0,0,1.3935,1.3943,1.3953,1.3916,1.3913,1.3928,1.3928,1.3927,1.3862,1.386,1.3858,1.3856,1.3833,1.3834,1.3835,1.3884,0,0,1.3838,1.3838,0,0,0,0,0,0,0,0,1.3936,1.3936,1.3922,1.3919,1.3915,1.3896,1.3915,1.3913,1.3863,1.3882,1.3858,1.3855,1.3856,1.3855,1.3855,1.3883,1.3881,1.3838,1.3839,1.3839,1.3839,0,0,0,0,0,0,0,1.3936,1.3936,1.3943,1.3922,1.3918,1.3901,1.3898,1.3914,1.3881,1.388,1.3875,1.3873,1.3854,1.3854,1.3854,1.3881,1.3838,1.3839,1.384,1.384,1.3944,1.3947,0,0,0,0,0,0,1.3942,1.3937,1.3944,1.3942,1.392,1.3903,1.3899,1.3904,1.3881,1.3875,1.3875,1.387,1.3854,1.3853,1.3853,1.3906,1.3839,1.384,1.3841,1.3942,1.3945,1.3947,0,0,0,0,0,0,1.3942,1.3943,1.3945,1.3938,1.3937,1.3906,1.3911,1.3905,1.3905,1.3877,1.3871,1.3882,1.3852,1.3852,1.3876,1.3904,1.3841,1.3841,1.394,1.3943,1.3946,1.4014,0,0,0,0,0,0,1.3942,1.3943,1.3962,1.3939,1.3938,1.3968,1.3913,1.3906,1.3907,1.3901,1.3881,1.3876,1.385,1.3875,1.3877,1.3904,1.3842,1.3937,1.3941,1.3945,1.4009,1.4019,1.4028,0,0,0,0,0,1.3942,1.3983,1.3963,1.3964,1.396,1.397,1.3969,1.3938,1.391,1.3927,1.3909,1.3877,1.3901,1.3878,1.388,1.3908,1.3935,1.394,1.3945,1.4005,1.4017,1.4028,0,0,0,0,0,0,1.401,1.3979,1.3957,1.3992,1.3984,1.3959,1.398,1.3953,1.3953,1.3947,1.3909,1.3905,1.3934,1.3924,1.3898,1.3953,1.3913,1.3918,1.3958,1.3969,1.3979,1.3979,1.3843,0,0,0,0,0,1.4029,1.404,1.4012,1.4046,1.4043,1.4013,1.4016,1.3992,1.3983,1.3979,1.3963,1.3955,1.396,1.3964,1.3968,1.4008,1.4002,1.4028,1.4038,1.4046,1.405,1.4068,1.4079,1.3963,1.3963,1.3963,0,0,1.4069,1.4053,1.4062,1.4059,1.405,1.4061,1.401,1.4025,1.4032,1.3982,1.4002,1.399,1.3979,1.401,1.4023,1.4003,1.4081,1.4052,1.4058,1.4058,1.4074,1.4085,1.4095,1.3967,1.3966,1.3965,0,0,1.4146,1.4136,1.4161,1.4153,1.414,1.412,1.4126,1.4105,1.4094,1.4115,1.4076,1.4085,1.4096,1.4088,1.4086,1.416,1.4129,1.4162,1.421,1.4228,1.4237,1.4245,1.4269,1.4278,1.4167,1.4167,1.4168,0,1.4196,1.4212,1.4178,1.4194,1.4193,1.4147,1.4172,1.4166,1.4155,1.4155,1.4133,1.4144,1.4133,1.4161,1.4179,1.4179,1.4184,1.4163,1.4239,1.4246,1.4253,1.4275,1.4284,1.4171,1.4171,1.417,1.417,0,1.4273,1.4284,1.4307,1.4296,1.4298,1.4318,1.4287,1.4293,1.427,1.4252,1.4272,1.4258,1.4256,1.4262,1.424,1.4286,1.4273,1.4246,1.4204,1.4268,1.4288,1.4297,1.4177,1.4175,1.4174,1.4173,0,0,1.4392,1.4362,1.437,1.4363,1.4345,1.4353,1.4372,1.437,1.4374,1.4369,1.4382,1.4392,1.4365,1.4363,1.4339,1.4355,1.4411,1.4325,1.4324,1.4339,1.4458,1.4478,1.4488,1.4392,1.4393,1.4395,1.4458,0,1.4462,1.449,1.446,1.4495,1.4504,1.446,1.4476,1.4466,1.445,1.4454,1.4436,1.4443,1.4409,1.4406,1.442,1.4401,1.4434,1.4397,1.4402,1.4403,1.4404,1.4499,1.452,1.4581,1.4466,1.4468,1.4469,0,1.4548,1.4544,1.4579,1.4557,1.456,1.4574,1.4569,1.4575,1.4563,1.4549,1.4546,1.4518,1.4533,1.4495,1.4515,1.449,1.4491,1.4482,1.4483,1.4481,1.4438,1.4496,1.46,1.4608,1.4481,1.448,1.4479,0,1.4627,1.4632,1.4652,1.4649,1.4624,1.4635,1.4625,1.4611,1.4611,1.4608,1.4607,1.4606,1.4604,1.4603,1.4575,1.455,1.4597,1.4557,1.4585,1.4586,1.4595,1.4595,1.4698,1.4601,1.46,1.46,1.46,0,1.4707,1.4729,1.4687,1.47,1.4723,1.4689,1.4713,1.4699,1.4687,1.4695,1.4659,1.4668,1.4631,1.4635,1.4614,1.4632,1.4633,1.4621,1.4615,1.4623,1.4624,1.4621,1.4615,1.4603,1.4602,1.4602,1.4601,0,1.4799,1.4772,1.4791,1.4766,1.476,1.4778,1.4756,1.4766,1.4748,1.4759,1.476,1.473,1.4734,1.4706,1.4705,1.469,1.4717,1.4705,1.4721,1.4716,1.4745,1.4742,1.4847,1.4858,1.4757,1.4758,1.4759,0,1.485,1.4866,1.4842,1.4845,1.4837,1.4842,1.4842,1.4809,1.481,1.4796,1.4808,1.4809,1.4807,1.4815,1.4793,1.4791,1.4777,1.4814,1.4776,1.4783,1.4774,1.4772,1.4772,1.4821,1.4822,1.4823,1.4824,0,1.4943,1.4929,1.4929,1.4925,1.4926,1.4921,1.4914,1.4919,1.4882,1.4886,1.4888,1.4887,1.4885,1.4885,1.4879,1.4869,1.484,1.4837,1.4842,1.485,1.4857,1.4851,1.474,1.4834,1.4833,1.4832,1.4832,1.4831,1.5014,1.5025,1.501,1.5011,1.5002,1.4996,1.5004,1.4986,1.4987,1.4982,1.4963,1.4969,1.4955,1.4944,1.4936,1.494,1.4922,1.4931,1.4933,1.4935,1.4939,1.4859,1.4939,1.4939,1.4939,1.4938,1.4938,0,1.5103,1.5091,1.5093,1.5083,1.5084,1.5057,1.5048,1.505,1.5055,1.5045,1.5044,1.5046,1.5046,1.5024,1.5021,1.5028,1.5015,1.5028,1.5026,1.5024,1.4957,1.4951,1.5039,1.5039,1.5039,1.5039,1.5039,1.5039,1.5149,1.5166,1.5149,1.5161,1.5148,1.5153,1.515,1.5143,1.5134,1.5138,1.5138,1.5124,1.5108,1.5104,1.5102,1.5096,1.5095,1.5113,1.5102,1.5039,1.5029,1.5019,1.5013,1.5114,1.5114,1.5168,1.5168,1.5169]},{"header":{"parameterUnit":"m.s-1","parameterCategory":1,"la1":30.2991,"la2":30.254,"lo1":-89.0895,"lo2":-89.0444,"dy":0.0017,"dx":0.0017,"nx":28,"ny":28,"refTime":"2024-07-17T09:00:00:Z","depth":0,"parameterNumber":3,"parameterNumberName":"V-component_of_WINDS"},"data":[0,0,0,0,0,0,0,0,0,0,0,0,0,0,0,0,0,0,0,0,0,0,0,0,0,0,0,0,0,0,0,0,0,0,0,0,0,0,0,0,0,0,0,0,0,0,0,0,0,0,0,0,0,0,0,0,0,0,4.2439,4.244,0,4.2566,4.2567,4.2569,4.2503,4.2499,4.2496,4.2493,4.2619,4.2625,4.2631,0,0,0,0,0,0,0,0,0,0,0,0,0,4.2133,4.2139,4.2439,4.244,4.2442,4.2566,4.2567,4.2569,4.2503,4.2499,4.2495,4.2491,4.2617,4.2624,4.2632,0,0,0,0,0,0,0,0,0,0,0,0,0,4.2264,4.2141,4.2438,4.2424,4.2424,4.2565,4.2567,4.257,4.2504,4.2499,4.2494,4.2489,4.2614,4.2623,4.2633,4.2794,0,0,4.2663,4.2667,0,0,0,0,0,0,0,0,4.2256,4.2275,4.2425,4.2425,4.2426,4.2513,4.2506,4.2645,4.2506,4.2474,4.2493,4.2487,4.2587,4.2599,4.2634,4.28,4.2806,4.2664,4.267,4.2674,4.2677,0,0,0,0,0,0,0,4.2247,4.2269,4.2489,4.2427,4.2427,4.2409,4.2422,4.2532,4.2557,4.2476,4.2472,4.2488,4.2587,4.2625,4.2636,4.2808,4.2663,4.2672,4.2678,4.2682,4.311,4.3115,0,0,0,0,0,0,4.224,4.2262,4.2485,4.2493,4.2327,4.2419,4.2434,4.249,4.2556,4.2561,4.2492,4.2484,4.2611,4.2625,4.264,4.2832,4.2674,4.2683,4.2688,4.3105,4.3111,4.3117,0,0,0,0,0,0,4.2234,4.226,4.248,4.2376,4.2403,4.243,4.2494,4.2495,4.2533,4.2568,4.2572,4.2527,4.2607,4.2627,4.2756,4.2836,4.2687,4.2696,4.3098,4.3107,4.3114,4.3218,0,0,0,0,0,0,4.2225,4.2259,4.2322,4.2378,4.2409,4.2596,4.2499,4.2502,4.2551,4.2542,4.2601,4.2606,4.2605,4.2742,4.2766,4.2846,4.2704,4.3091,4.3102,4.3112,4.3207,4.3228,4.3247,0,0,0,0,0,4.2214,4.2345,4.2325,4.2352,4.2488,4.26,4.2617,4.2614,4.2558,4.262,4.2642,4.2604,4.2823,4.2756,4.2782,4.2867,4.3086,4.3099,4.3111,4.3198,4.3224,4.3246,0,0,0,0,0,0,4.2296,4.2352,4.2331,4.2484,4.2538,4.2589,4.2668,4.2642,4.2712,4.2701,4.2692,4.2706,4.284,4.2866,4.2791,4.3025,4.2946,4.2964,4.3003,4.3028,4.3047,4.3038,4.2712,0,0,0,0,0,4.2332,4.242,4.2464,4.2595,4.2623,4.2641,4.269,4.2683,4.2737,4.2759,4.2791,4.2844,4.2924,4.2978,4.3054,4.3211,4.3222,4.3282,4.3301,4.3317,4.3333,4.3415,4.3442,4.3158,4.3158,4.3158,0,0,4.2407,4.2448,4.2504,4.2612,4.2653,4.2742,4.2661,4.2759,4.2824,4.2774,4.2898,4.2923,4.2982,4.3125,4.319,4.3151,4.3414,4.3333,4.3346,4.3353,4.3431,4.3458,4.3482,4.3166,4.3165,4.3164,0,0,4.2589,4.263,4.2743,4.2786,4.2849,4.286,4.2887,4.2942,4.2957,4.3082,4.3045,4.3122,4.3261,4.3304,4.3344,4.3541,4.3508,4.3566,4.3668,4.3749,4.3772,4.3791,4.386,4.3885,4.3582,4.3582,4.3582,0,4.2673,4.2808,4.2804,4.2905,4.2952,4.2912,4.3024,4.3066,4.315,4.3183,4.3138,4.3312,4.3348,4.35,4.3548,4.3583,4.3612,4.3559,4.3769,4.3789,4.3807,4.3872,4.3898,4.3588,4.3588,4.3587,4.3586,0,4.2908,4.3002,4.3085,4.3169,4.3226,4.3332,4.3342,4.3399,4.3387,4.3402,4.3528,4.3571,4.3654,4.369,4.3679,4.384,4.3814,4.377,4.3689,4.3841,4.3902,4.3927,4.3598,4.3595,4.3593,4.3592,0,0,4.3145,4.3225,4.3255,4.3292,4.3358,4.3429,4.3533,4.3616,4.3664,4.3724,4.3809,4.3927,4.3886,4.3932,4.3925,4.3996,4.4147,4.3943,4.3944,4.3978,4.4325,4.4357,4.4386,4.4126,4.4131,4.4134,4.432,0,4.333,4.3513,4.3512,4.368,4.3765,4.3727,4.3817,4.3866,4.3883,4.3956,4.3973,4.4057,4.3998,4.4025,4.4093,4.4114,4.4216,4.4101,4.4203,4.4207,4.4189,4.4419,4.4453,4.4626,4.4344,4.4348,4.4351,0,4.3571,4.3639,4.3817,4.3869,4.3905,4.3986,4.406,4.4132,4.4186,4.4192,4.4243,4.4224,4.4327,4.4245,4.4385,4.4307,4.4348,4.4365,4.4371,4.438,4.4287,4.4432,4.4681,4.4707,4.4388,4.4385,4.4383,0,4.3724,4.386,4.3983,4.4016,4.4081,4.4138,4.4168,4.4217,4.4266,4.4331,4.4362,4.4438,4.4479,4.4537,4.4538,4.4478,4.4679,4.4597,4.4686,4.4686,4.473,4.4727,4.4988,4.4759,4.4758,4.4758,4.4757,0,4.3931,4.404,4.4053,4.4129,4.4249,4.4245,4.4364,4.4388,4.4432,4.451,4.4482,4.4555,4.4553,4.4627,4.4629,4.4744,4.4763,4.477,4.4768,4.4772,4.4771,4.4798,4.4786,4.4765,4.4763,4.4762,4.4761,0,4.4122,4.4135,4.4267,4.4317,4.4332,4.4419,4.4461,4.4532,4.4545,4.4644,4.4667,4.4688,4.4774,4.4781,4.488,4.4881,4.502,4.5006,4.5002,4.4999,4.5087,4.5078,4.5374,4.5412,4.5159,4.5162,4.5164,0,4.4253,4.4336,4.4395,4.4446,4.4479,4.4561,4.4612,4.461,4.4663,4.473,4.4793,4.4876,4.4942,4.508,4.5103,4.5178,4.5165,4.5264,4.5176,4.5176,4.5165,4.516,4.5167,4.528,4.5283,4.5285,4.5287,0,4.4482,4.4484,4.4559,4.4635,4.4696,4.4756,4.4812,4.4854,4.4859,4.492,4.5008,4.5059,4.516,4.5242,4.5316,4.5343,4.5316,4.5315,4.5339,4.5343,4.5336,4.5339,4.5047,4.5308,4.5306,4.5304,4.5303,4.5302,4.4646,4.4718,4.4771,4.4854,4.4896,4.4948,4.5017,4.5039,4.5113,4.5196,4.519,4.5287,4.5336,4.5432,4.5466,4.554,4.5507,4.5542,4.5551,4.5559,4.5568,4.5325,4.5553,4.5553,4.5552,4.5552,4.5551,0,4.4873,4.4905,4.4982,4.5061,4.5126,4.5095,4.5155,4.5211,4.5297,4.5346,4.5412,4.5512,4.5591,4.562,4.5697,4.575,4.5739,4.577,4.5766,4.5772,4.5594,4.5565,4.5778,4.5778,4.5778,4.5778,4.5778,4.5777,4.4999,4.5118,4.5126,4.5265,4.5296,4.5391,4.5428,4.5475,4.5514,4.5628,4.5694,4.5712,4.5753,4.5832,4.5903,4.5909,4.5938,4.5974,4.5975,4.5808,4.5785,4.5763,4.5736,4.5981,4.5981,4.6147,4.6148,4.6149]}]]